| time (UTC) | temp F | wind direction | speed MPH | gust MPH | rain 1hr in | rain 24hr in | rain mn in | humidity % | barometer mb |
| 20260505052412 | 39 | 313 | 2.0 | 2.0 | 0.00 | 0.02 | 0.02 | 96 | 1016.1 |
| 20260505051910 | 39 | 316 | 2.0 | 2.0 | 0.00 | 0.02 | 0.02 | 96 | 1016.0 |
| 20260505051407 | 39 | 308 | 1.0 | 1.0 | 0.00 | 0.02 | 0.02 | 96 | 1015.7 |
| 20260505050905 | 39 | 328 | 2.0 | 3.0 | 0.00 | 0.02 | 0.02 | 96 | 1015.7 |
| 20260505050403 | 39 | 323 | 2.0 | 3.0 | 0.00 | 0.02 | 0.02 | 96 | 1015.8 |
| 20260505041330 | 39 | 342 | 2.0 | 5.0 | 0.00 | 0.02 | 0.02 | 95 | 1016.1 |
| 20260505040827 | 39 | 4 | 3.0 | 5.0 | 0.00 | 0.02 | 0.02 | 95 | 1016.0 |
| 20260505040325 | 39 | 325 | 2.0 | 3.0 | 0.00 | 0.02 | 0.02 | 95 | 1015.8 |
| 20260505035821 | 39 | 314 | 1.0 | 2.0 | 0.00 | 0.02 | 0.02 | 96 | 1015.7 |
| 20260505035317 | 39 | 309 | 0.0 | 2.0 | 0.00 | 0.02 | 0.02 | 96 | 1015.7 |
| 20260505034815 | 38 | 310 | 0.0 | 1.0 | 0.00 | 0.02 | 0.02 | 96 | 1015.6 |
| 20260505034311 | 38 | 307 | 0.0 | 0.0 | 0.00 | 0.02 | 0.02 | 96 | 1015.6 |
| 20260505033808 | 38 | 322 | 3.0 | 3.0 | 0.00 | 0.02 | 0.02 | 96 | 1015.5 |
| 20260505033305 | 38 | 322 | 1.0 | 2.0 | 0.00 | 0.02 | 0.02 | 96 | 1016.0 |
| 20260505032804 | 38 | 346 | 3.0 | 3.0 | 0.00 | 0.02 | 0.02 | 95 | 1015.7 |
| 20260505032259 | 38 | 342 | 3.0 | 6.0 | 0.00 | 0.02 | 0.02 | 95 | 1015.6 |
| 20260505031756 | 39 | 328 | 3.0 | 5.0 | 0.00 | 0.02 | 0.02 | 94 | 1015.6 |
| 20260505031253 | 39 | 327 | 3.0 | 3.0 | 0.00 | 0.02 | 0.02 | 93 | 1015.3 |
| 20260505030750 | 39 | 306 | 1.0 | 2.0 | 0.00 | 0.02 | 0.02 | 93 | 1015.3 |
| 20260505030246 | 39 | 295 | 1.0 | 1.0 | 0.00 | 0.02 | 0.02 | 93 | 1015.3 |
| 20260505025742 | 39 | 302 | 0.0 | 1.0 | 0.00 | 0.02 | 0.02 | 93 | 1015.3 |
| 20260505025240 | 40 | 308 | 0.0 | 2.0 | 0.00 | 0.02 | 0.02 | 93 | 1015.5 |
| 20260505024738 | 40 | 338 | 2.0 | 3.0 | 0.00 | 0.02 | 0.02 | 94 | 1015.8 |
| 20260505024235 | 40 | 329 | 3.0 | 3.0 | 0.00 | 0.02 | 0.02 | 94 | 1015.6 |
| 20260505023732 | 40 | 339 | 3.0 | 5.0 | 0.00 | 0.02 | 0.02 | 94 | 1015.7 |
| 20260505023230 | 40 | 354 | 5.0 | 6.0 | 0.00 | 0.02 | 0.02 | 92 | 1015.8 |
| 20260505022727 | 40 | 345 | 5.0 | 7.0 | 0.00 | 0.02 | 0.02 | 92 | 1015.6 |
| 20260505022224 | 40 | 329 | 4.0 | 6.0 | 0.00 | 0.02 | 0.02 | 91 | 1015.3 |
| 20260505021720 | 41 | 336 | 4.0 | 5.0 | 0.00 | 0.02 | 0.02 | 90 | 1015.3 |
| 20260505021217 | 41 | 327 | 2.0 | 3.0 | 0.00 | 0.02 | 0.02 | 90 | 1015.1 |
| 20260505020713 | 41 | 304 | 1.0 | 2.0 | 0.07 | 0.02 | 0.02 | 89 | 1015.5 |
| 20260505020208 | 41 | 314 | 1.0 | 3.0 | 0.07 | 0.02 | 0.02 | 90 | 1015.5 |
| 20260505015706 | 42 | 356 | 3.0 | 3.0 | 0.00 | 0.01 | 0.01 | 89 | 1015.6 |
| 20260505015203 | 42 | 353 | 3.0 | 5.0 | 0.05 | 0.01 | 0.01 | 88 | 1015.7 |
| 20260505014700 | 42 | 346 | 4.0 | 6.0 | 0.05 | 0.01 | 0.01 | 86 | 1015.7 |
| 20260505014157 | 42 | 3 | 3.0 | 3.0 | 0.00 | 0.00 | 0.00 | 84 | 1015.5 |
| 20260505013654 | 42 | 348 | 5.0 | 6.0 | 0.00 | 0.00 | 0.00 | 83 | 1015.3 |
| 20260505013151 | 43 | 22 | 3.0 | 6.0 | 0.00 | 0.00 | 0.00 | 79 | 1015.1 |
| 20260505012649 | 43 | 318 | 2.0 | 5.0 | 0.00 | 0.00 | 0.00 | 77 | 1015.1 |
| 20260505012146 | 43 | 312 | 1.0 | 3.0 | 0.00 | 0.00 | 0.00 | 76 | 1015.2 |
| 20260505011642 | 44 | 302 | 0.0 | 1.0 | 0.00 | 0.00 | 0.00 | 75 | 1015.1 |
| 20260505011139 | 44 | 280 | 2.0 | 2.0 | 0.00 | 0.00 | 0.00 | 74 | 1015.0 |
| 20260505010639 | 44 | 293 | 1.0 | 7.0 | 0.00 | 0.00 | 0.00 | 73 | 1015.0 |
| 20260505010137 | 44 | 90 | 7.0 | 8.0 | 0.00 | 0.00 | 0.00 | 72 | 1014.8 |
| 20260505005632 | 45 | 344 | 5.0 | 7.0 | 0.00 | 0.00 | 0.00 | 70 | 1014.8 |
| 20260505005130 | 46 | 21 | 3.0 | 6.0 | 0.00 | 0.00 | 0.00 | 70 | 1015.0 |
| 20260505004627 | 46 | 69 | 6.0 | 9.0 | 0.00 | 0.00 | 0.00 | 68 | 1014.8 |
| 20260505004123 | 46 | 65 | 6.0 | 11.0 | 0.00 | 0.00 | 0.00 | 66 | 1014.7 |
| 20260505003620 | 48 | 16 | 6.0 | 7.0 | 0.00 | 0.00 | 0.00 | 63 | 1014.6 |
| 20260505003113 | 48 | 76 | 11.0 | 16.0 | 0.00 | 0.00 | 0.00 | 59 | 1014.4 |
| 20260505002608 | 50 | 17 | 5.0 | 13.0 | 0.00 | 0.00 | 0.00 | 56 | 1014.3 |
| 20260505002107 | 50 | 37 | 13.0 | 17.0 | 0.00 | 0.00 | 0.00 | 57 | 1014.2 |
| 20260505001604 | 54 | 20 | 10.0 | 13.0 | 0.00 | 0.00 | 0.00 | 40 | 1013.7 |
| 20260505001101 | 54 | 353 | 4.0 | 7.0 | 0.00 | 0.00 | 0.00 | 39 | 1013.7 |
| 20260505000558 | 55 | 50 | 5.0 | 8.0 | 0.00 | 0.00 | 0.00 | 39 | 1013.4 |
| 20260505000056 | 55 | 38 | 5.0 | 9.0 | 0.00 | 0.00 | 0.00 | 39 | 1012.8 |
| 20260504235552 | 55 | 113 | 6.0 | 11.0 | 0.00 | 0.00 | 0.00 | 38 | 1013.0 |
| 20260504235049 | 56 | 38 | 3.0 | 7.0 | 0.00 | 0.00 | 0.00 | 38 | 1012.8 |
| 20260504234546 | 57 | 356 | 7.0 | 8.0 | 0.00 | 0.00 | 0.00 | 38 | 1013.0 |
| 20260504234043 | 57 | 13 | 9.0 | 11.0 | 0.00 | 0.00 | 0.00 | 38 | 1012.9 |
| 20260504233538 | 58 | 346 | 5.0 | 9.0 | 0.00 | 0.00 | 0.00 | 37 | 1012.9 |
| 20260504233035 | 57 | 351 | 6.0 | 8.0 | 0.00 | 0.00 | 0.00 | 39 | 1012.8 |
| 20260504232532 | 57 | 9 | 4.0 | 5.0 | 0.00 | 0.00 | 0.00 | 37 | 1012.9 |
| 20260504232030 | 57 | 33 | 4.0 | 5.0 | 0.00 | 0.00 | 0.00 | 38 | 1012.8 |
| 20260504231526 | 57 | 338 | 2.0 | 7.0 | 0.00 | 0.00 | 0.00 | 37 | 1012.7 |
| 20260504231022 | 57 | 335 | 3.0 | 6.0 | 0.00 | 0.00 | 0.00 | 37 | 1012.8 |
| 20260504230519 | 57 | 21 | 3.0 | 7.0 | 0.00 | 0.00 | 0.00 | 37 | 1012.7 |
| 20260504230018 | 58 | 35 | 6.0 | 10.0 | 0.00 | 0.00 | 0.00 | 37 | 1012.8 |
| 20260504225515 | 58 | 335 | 5.0 | 6.0 | 0.00 | 0.00 | 0.00 | 34 | 1012.8 |
| 20260504225012 | 58 | 322 | 5.0 | 6.0 | 0.00 | 0.00 | 0.00 | 36 | 1012.8 |
| 20260504224508 | 58 | 304 | 4.0 | 5.0 | 0.00 | 0.00 | 0.00 | 35 | 1012.7 |
| 20260504224005 | 58 | 304 | 4.0 | 7.0 | 0.00 | 0.00 | 0.00 | 36 | 1013.2 |
| 20260504223502 | 58 | 307 | 3.0 | 7.0 | 0.00 | 0.00 | 0.00 | 34 | 1013.2 |
| 20260504222957 | 58 | 323 | 4.0 | 7.0 | 0.00 | 0.00 | 0.00 | 34 | 1013.2 |
| 20260504222455 | 58 | 288 | 6.0 | 8.0 | 0.00 | 0.00 | 0.00 | 33 | 1013.2 |
| 20260504221952 | 59 | 231 | 5.0 | 7.0 | 0.00 | 0.00 | 0.00 | 35 | 1013.2 |
| 20260504221449 | 58 | 264 | 3.0 | 7.0 | 0.00 | 0.00 | 0.00 | 36 | 1013.3 |
| 20260504220946 | 57 | 272 | 5.0 | 7.0 | 0.00 | 0.00 | 0.00 | 37 | 1013.3 |
| 20260504220443 | 56 | 284 | 7.0 | 8.0 | 0.00 | 0.00 | 0.00 | 38 | 1013.3 |
| 20260504215940 | 55 | 218 | 6.0 | 11.0 | 0.00 | 0.00 | 0.00 | 40 | 1013.4 |
| 20260504215436 | 55 | 253 | 11.0 | 15.0 | 0.00 | 0.00 | 0.00 | 41 | 1013.3 |
| 20260504214933 | 54 | 225 | 11.0 | 14.0 | 0.00 | 0.00 | 0.00 | 41 | 1013.7 |
| 20260504214429 | 54 | 289 | 8.0 | 22.0 | 0.00 | 0.00 | 0.00 | 42 | 1013.7 |
| 20260504213926 | 56 | 289 | 7.0 | 17.0 | 0.00 | 0.00 | 0.00 | 40 | 1013.8 |
| 20260504213422 | 55 | 249 | 12.0 | 13.0 | 0.00 | 0.00 | 0.00 | 39 | 1013.8 |
| 20260504212920 | 55 | 233 | 9.0 | 13.0 | 0.00 | 0.00 | 0.00 | 39 | 1013.6 |
| 20260504212415 | 55 | 282 | 9.0 | 14.0 | 0.00 | 0.00 | 0.00 | 40 | 1013.7 |
| 20260504211914 | 56 | 305 | 7.0 | 10.0 | 0.00 | 0.00 | 0.00 | 38 | 1013.9 |
| 20260504211409 | 55 | 288 | 10.0 | 16.0 | 0.00 | 0.00 | 0.00 | 37 | 1013.9 |
| 20260504210907 | 56 | 270 | 18.0 | 24.0 | 0.00 | 0.00 | 0.00 | 39 | 1013.9 |
| 20260504210404 | 57 | 273 | 13.0 | 18.0 | 0.00 | 0.00 | 0.00 | 34 | 1013.8 |
| 20260504205901 | 58 | 329 | 6.0 | 8.0 | 0.00 | 0.00 | 0.00 | 32 | 1013.7 |
| 20260504205359 | 59 | 315 | 7.0 | 8.0 | 0.00 | 0.00 | 0.00 | 31 | 1013.8 |
| 20260504204857 | 59 | 269 | 7.0 | 10.0 | 0.00 | 0.00 | 0.00 | 32 | 1013.7 |
| 20260504204355 | 59 | 258 | 4.0 | 6.0 | 0.00 | 0.00 | 0.00 | 33 | 1013.8 |
| 20260504203854 | 58 | 276 | 4.0 | 15.0 | 0.00 | 0.00 | 0.00 | 34 | 1013.7 |
| 20260504203350 | 57 | 263 | 7.0 | 15.0 | 0.00 | 0.00 | 0.00 | 36 | 1013.9 |
| 20260504202846 | 57 | 271 | 14.0 | 22.0 | 0.00 | 0.00 | 0.00 | 36 | 1013.9 |
| 20260504202344 | 59 | 292 | 12.0 | 17.0 | 0.00 | 0.00 | 0.00 | 32 | 1013.4 |
| 20260504201840 | 60 | 289 | 6.0 | 11.0 | 0.00 | 0.00 | 0.00 | 29 | 1013.6 |
| 20260504201337 | 60 | 254 | 5.0 | 10.0 | 0.00 | 0.00 | 0.00 | 27 | 1013.4 |
| 20260504200835 | 61 | 243 | 7.0 | 11.0 | 0.00 | 0.00 | 0.00 | 27 | 1013.4 |
| 20260504200331 | 62 | 352 | 3.0 | 8.0 | 0.00 | 0.00 | 0.00 | 26 | 1013.3 |
| 20260504195828 | 64 | 350 | 6.0 | 8.0 | 0.00 | 0.00 | 0.00 | 25 | 1013.3 |
| 20260504195323 | 64 | 298 | 6.0 | 11.0 | 0.00 | 0.00 | 0.00 | 23 | 1013.3 |
| 20260504194820 | 64 | 211 | 6.0 | 10.0 | 0.00 | 0.00 | 0.00 | 24 | 1013.3 |
| 20260504194316 | 63 | 246 | 5.0 | 8.0 | 0.00 | 0.00 | 0.00 | 22 | 1013.4 |
| 20260504193812 | 62 | 352 | 9.0 | 11.0 | 0.00 | 0.00 | 0.00 | 24 | 1013.4 |
| 20260504193310 | 61 | 351 | 9.0 | 13.0 | 0.00 | 0.00 | 0.00 | 26 | 1013.4 |
| 20260504192808 | 63 | 327 | 6.0 | 13.0 | 0.00 | 0.00 | 0.00 | 25 | 1013.7 |
| 20260504192306 | 63 | 293 | 8.0 | 13.0 | 0.00 | 0.00 | 0.00 | 23 | 1013.8 |
| 20260504191805 | 61 | 293 | 2.0 | 11.0 | 0.00 | 0.00 | 0.00 | 25 | 1013.9 |
| 20260504191302 | 60 | 347 | 10.0 | 18.0 | 0.00 | 0.00 | 0.00 | 26 | 1014.1 |
| 20260504190757 | 62 | 330 | 10.0 | 13.0 | 0.00 | 0.00 | 0.00 | 27 | 1014.3 |
| 20260504190253 | 58 | 306 | 7.0 | 9.0 | 0.00 | 0.00 | 0.00 | 30 | 1014.2 |
| 20260504185750 | 60 | 3 | 7.0 | 11.0 | 0.00 | 0.00 | 0.00 | 28 | 1014.3 |
| 20260504185247 | 62 | 42 | 9.0 | 10.0 | 0.00 | 0.00 | 0.00 | 26 | 1014.1 |
| 20260504184743 | 63 | 289 | 7.0 | 14.0 | 0.00 | 0.00 | 0.00 | 25 | 1014.2 |
| 20260504184239 | 62 | 238 | 9.0 | 16.0 | 0.00 | 0.00 | 0.00 | 25 | 1014.1 |
| 20260504183735 | 63 | 333 | 7.0 | 13.0 | 0.00 | 0.00 | 0.00 | 26 | 1014.2 |
| 20260504183232 | 61 | 263 | 9.0 | 14.0 | 0.00 | 0.00 | 0.00 | 27 | 1014.4 |
| 20260504182730 | 59 | 283 | 8.0 | 13.0 | 0.00 | 0.00 | 0.00 | 29 | 1014.3 |
| 20260504182227 | 61 | 309 | 6.0 | 9.0 | 0.00 | 0.00 | 0.00 | 25 | 1014.4 |
| 20260504181724 | 60 | 290 | 9.0 | 11.0 | 0.00 | 0.00 | 0.00 | 26 | 1014.7 |
| 20260504181222 | 61 | 269 | 9.0 | 14.0 | 0.00 | 0.00 | 0.00 | 25 | 1014.7 |
| 20260504180721 | 60 | 270 | 7.0 | 10.0 | 0.00 | 0.00 | 0.00 | 26 | 1014.8 |
| 20260504180219 | 61 | 281 | 9.0 | 13.0 | 0.00 | 0.00 | 0.00 | 25 | 1015.0 |
| 20260504175716 | 61 | 302 | 9.0 | 13.0 | 0.00 | 0.00 | 0.00 | 25 | 1014.8 |
| 20260504175213 | 60 | 324 | 7.0 | 13.0 | 0.00 | 0.00 | 0.00 | 26 | 1014.8 |
| 20260504174711 | 60 | 308 | 8.0 | 11.0 | 0.00 | 0.00 | 0.00 | 26 | 1015.1 |
| 20260504174209 | 59 | 310 | 7.0 | 10.0 | 0.00 | 0.00 | 0.00 | 26 | 1015.3 |
| 20260504173705 | 60 | 329 | 12.0 | 15.0 | 0.00 | 0.00 | 0.00 | 26 | 1015.2 |
| 20260504173202 | 60 | 319 | 6.0 | 14.0 | 0.00 | 0.00 | 0.00 | 28 | 1015.5 |
| 20260504172658 | 59 | 331 | 7.0 | 10.0 | 0.00 | 0.00 | 0.00 | 27 | 1015.7 |
| 20260504172155 | 59 | 318 | 7.0 | 17.0 | 0.00 | 0.00 | 0.00 | 29 | 1015.7 |
| 20260504171651 | 57 | 315 | 7.0 | 9.0 | 0.00 | 0.00 | 0.00 | 29 | 1015.6 |
| 20260504171149 | 56 | 7 | 6.0 | 10.0 | 0.00 | 0.00 | 0.00 | 29 | 1016.0 |
| 20260504170645 | 57 | 293 | 5.0 | 7.0 | 0.00 | 0.00 | 0.00 | 32 | 1016.1 |
| 20260504170143 | 57 | 295 | 0.0 | 3.0 | 0.00 | 0.00 | 0.00 | 30 | 1016.0 |
| 20260504151028 | 52 | 19 | 3.0 | 7.0 | 0.00 | 0.00 | 0.00 | 40 | 1017.5 |
| 20260504150525 | 51 | 306 | 0.0 | 2.0 | 0.00 | 0.00 | 0.00 | 46 | 1017.6 |
| 20260504140951 | 37 | 280 | 1.0 | 6.0 | 0.00 | 0.00 | 0.00 | 73 | 1018.0 |
| 20260504140447 | 36 | 271 | 2.0 | 5.0 | 0.00 | 0.00 | 0.00 | 73 | 1017.8 |
| 20260504130412 | 29 | 279 | 1.0 | 1.0 | 0.00 | 0.00 | 0.00 | 84 | 1017.4 |
| 20260504110259 | 27 | 279 | 1.0 | 1.0 | 0.00 | 0.00 | 0.00 | 86 | 1017.6 |
| 20260504100217 | 27 | 279 | 1.0 | 1.0 | 0.00 | 0.00 | 0.00 | 85 | 1017.8 |
| 20260504090139 | 26 | 279 | 0.0 | 0.0 | 0.00 | 0.00 | 0.00 | 86 | 1018.0 |
| 20260504081610 | 26 | 279 | 0.0 | 1.0 | 0.00 | 0.00 | 0.00 | 86 | 1018.4 |
| 20260504081106 | 26 | 279 | 0.0 | 0.0 | 0.00 | 0.00 | 0.00 | 85 | 1018.4 |
| 20260504080603 | 26 | 279 | 0.0 | 0.0 | 0.00 | 0.00 | 0.00 | 85 | 1018.4 |